Miscellaneous Local Product
Issued by NWS North Platte, NE

Home | Current Version | Previous Version | Text Only | Print | Product List | Glossary On
Versions: 1 2 3 4 5 6 7 8 9 10 11 12 13 14 15 16 17 18 19 20 21 22 23 24 25 26 27 28 29 30 31 32 33 34 35 36 37 38 39 40 41 42 43 44 45 46 47 48 49 50
000
AXUS43 KLBF 252310
MISLBF


WESTERN AND NORTH CENTRAL NEBRASKA HOURLY WEATHER ROUNDUP
NATIONAL WEATHER SERVICE NORTH PLATTE NE
600 PM CDT SAT OCT 25 2014

***STATIONS NOT REPORTING VARIABLES SUCH AS SKY/WEATHER OR
PRESSURE ARE PROVIDED BY THE NEBRASKA DEPARTMENT OF
ROADS...RAWS...AND APRS NETWORKS...AND ARE NOT UNDER
NATIONAL WEATHER SERVICE QUALITY CONTROL***

...OBSERVATIONS IN AND NEAR THE EASTERN PANHANDLE OF NEBRASKA...

CITY           SKY/WX    TMP DP  RH WIND       PRES   REMARKS
PINE RIDGE     CLEAR     68  41  37 SE9       29.99F
CHADRON        CLEAR     72  42  34 E6        29.97F
ALLIANCE       CLEAR     72  41  32 SE8       30.00F
SIDNEY         CLEAR     73  36  25 SE8       30.06S
WHITECLAY        N/A     70  39  31 E9          N/A
RUSHVILLE        N/A     73  32  22 SE14        N/A
CRESCENT LAKE    N/A     76  37  24 S6          N/A
LISCO            N/A     77  26  15 E9          N/A
BIG SPRINGS      N/A     78  38  23 E3          N/A
LEWELLEN         N/A     81  33  18 E3          N/A
$$

...OBSERVATIONS IN NORTH CENTRAL NEBRASKA...

CITY           SKY/WX    TMP DP  RH WIND       PRES   REMARKS
VALENTINE      CLEAR     68  32  26 E12       30.03F
THEDFORD       CLEAR     72  41  33 E10       30.04S
AINSWORTH      CLEAR     65  33  30 E7        30.04F
O`NEILL        CLEAR     66  37  33 E7        30.06F
ORD            CLEAR     68  40  35 SE9       30.03F
BROKEN BOW     CLEAR     70  46  42 SE10      30.02F
BROWNLEE         N/A     71  34  24 E13         N/A
SPRINGVIEW       N/A     67  37  33 E6          N/A
BREWSTER         N/A     73  43  34 E8          N/A
ROSE             N/A     72  44  36 E8          N/A
NEWPORT          N/A     64  39  40 E8          N/A
SARGENT          N/A     68  43  39 E3          N/A
COMSTOCK         N/A     74  45  35 E8          N/A
CHAMBERS         N/A     65  37  34 E3          N/A
EWING            N/A     66  38  36 E3          N/A
$$

...OBSERVATIONS IN SOUTHWEST NEBRASKA AND FAR NORTHEAST COLORADO...

CITY           SKY/WX    TMP DP  RH WIND       PRES   REMARKS
WRAY           FAIR      81  32  17 S6        30.01F
HOLYOKE        FAIR      81  34  18 E3        30.02F
IMPERIAL       CLEAR     77  40  26 SE8       30.00F
OGALLALA       CLEAR     78  41  26 CALM      30.01S
NORTH PLATTE   CLEAR     72  47  40 E12       29.99F
MCCOOK         CLEAR     82  44  26 SE9       29.97F
LEXINGTON      CLEAR     74  48  39 E13       30.00F
PAXTON           N/A     79  47  31 CALM        N/A
SUTHERLAND       N/A     80  47  31 E8          N/A
BRADY            N/A     73  47  39 N5          N/A
GOTHENBURG       N/A     75  44  33 E10         N/A
CALLAWAY         N/A     74  47  37 SE12        N/A
$$

...SOME WEATHER OBSERVATIONS FROM AROUND THE REGION...

CITY           SKY/WX    TMP DP  RH WIND       PRES   REMARKS
DENVER         SUNNY     77  20  12 E12       30.07F
LARAMIE        SUNNY     69  15  12 SW14      30.15F
CHEYENNE       SUNNY     70  20  15 S14       30.12F
SCOTTSBLUFF    CLEAR     74  35  24 SE13      30.00F
RAPID CITY     CLEAR     64  38  38 S12       29.97F
PIERRE         CLEAR     65  30  27 E10       30.02F
WINNER         FAIR      68  30  24 SE12      30.03F
SIOUX FALLS    CLEAR     59  39  47 NE7       30.07F
OMAHA          CLEAR     70  42  36 NE6       30.04F
GRAND ISLAND   CLEAR     71  43  36 E7        30.03F
KANSAS CITY    CLEAR     75  55  49 E5        30.02S
WICHITA        CLEAR     85  58  39 S10       29.98F
HAYS           CLEAR     82  52  34 S9        29.97F
LIBERAL        CLEAR     88  43  20 S13       30.00F
GOODLAND       CLEAR     81  41  24 S15       30.00F
$$



USA.gov is the U.S. government's official web portal to all federal, state and local government web resources and services.